RH
48 53 53 69 79 87 90 72 73 78 67 50 45 50 58 64 68 78 96 85 78 90 88 89 90 93 96 91 92 97 98 97 96 92 77 81 88 92 96 94 93 93 93 93 96 97 94 94 95
55 58 63 73 84 80 80 66 73 73 59 45 43 46 57 77 75 88 93 87 80 92 83 87 86 92 96 88 80 95 96 91 79 69 71 72 78 81 94 95 94 95 92 95 83 70 93 96 82
58 64 74 85 86 81 77 71 64 65 55 51 47 45 61 90 80 80 88 94 88 96 80 86 84 92 96 94 86 81 89 90 80 93 98 97 95 94 95 88 86 95 93 75 72 67 65 64 76
58 70 80 84 82 84 78 77 61 66 54 48 49 62 60 62 71 82 94 96 95 97 77 90 91 96 96 93 94 93 94 95 95 94 95 96 96 95 96 95 95 94 94 76 73 66 65 61 64
57 80 81 74 75 72 65 75 64 60 63 48 48 66 68 65 72 88 93 97 96 94 81 92 90 94 98 97 94 94 95 94 95 94 94 93 92 96 94 94 95 94 95 80 74 70 72 79 72
65 70 77 72 74 65 57 58 61 51 49 48 56 59 71 80 86 91 82 94 90 78 86 91 97 96 96 96 94 91 94 95 95 94 93 93 94 90 84 87 87 93 86 72 72 71 70 83 67
55 75 74 72 74 67 60 56 62 56 55 53 47 70 78 79 82 84 84 84 81 77 88 90 96 94 94 95 94 92 93 88 95 94 93 93 92 86 83 88 86 96 96 88 75 71 68 68 66
60 63 71 66 86 69 60 52 48 53 58 44 44 74 89 74 81 79 92 90 81 83 81 83 89 92 92 92 93 93 89 94 91 88 81 71 80 78 92 80 75 85 81 87 90 78 78 72 69
52 56 62 55 58 60 53 52 50 40 47 46 48 52 57 70 71 92 99 98 100 96 79 73 80 87 88 87 90 91 92 94 95 92 87 69 73 76 67 66 73 78 66 82 88 90 86 82 75
47 54 41 39 43 50 48 43 43 45 49 53 58 51 60 66 87 93 94 96 97 97 96 78 78 82 84 84 92 89 90 92 93 90 79 72 66 61 65 67 71 76 68 91 80 89 92 93 82
44 44 36 33 34 38 41 43 41 48 51 61 74 66 71 78 86 88 89 85 89 91 90 83 89 80 77 87 83 83 89 91 88 87 75 70 62 62 60 68 72 61 76 70 77 77 74 70 73
37 32 32 30 41 42 46 42 46 42 40 50 65 68 71 78 81 84 88 89 84 93 87 81 83 81 82 78 78 86 85 86 83 81 74 70 67 67 60 69 70 58 70 77 78 75 74 74 74
30 31 28 27 37 37 39 43 44 44 51 49 61 67 72 75 78 80 85 91 92 95 92 87 86 82 77 73 73 81 81 81 80 82 77 77 73 73 64 66 67 60 71 79 78 76 77 71 75
20 23 21 23 26 34 42 45 43 45 50 52 64 64 68 72 77 82 85 92 88 91 91 91 81 78 73 74 71 71 75 73 78 80 73 79 79 81 71 67 62 63 80 79 79 79 78 74 73
20 21 20 17 26 39 42 49 52 48 57 67 72 71 77 78 80 82 86 83 78 85 84 88 78 74 77 77 72 73 68 70 74 71 75 80 84 82 76 73 73 74 80 76 82 78 78 74 74
24 24 27 21 24 40 32 57 52 49 60 71 79 82 81 85 82 83 89 85 84 82 83 83 85 78 80 81 75 77 76 72 72 73 79 80 87 84 83 80 76 78 74 79 77 78 74 74 73
31 30 27 25 24 39 31 49 50 56 59 76 80 85 84 87 87 91 96 90 93 86 78 85 79 79 72 72 71 76 74 76 75 75 77 76 84 86 89 90 84 78 72 75 75 75 76 72 73
30 30 27 28 23 30 36 44 55 64 63 72 77 88 93 94 91 90 95 89 92 93 72 69 72 79 74 70 70 74 77 76 79 76 76 80 79 81 78 84 82 74 70 67 76 73 69 73 73
25 27 29 26 24 29 34 49 55 67 58 79 91 92 93 91 95 90 82 84 89 80 76 71 75 76 75 73 76 79 78 78 78 75 72 69 80 79 81 82 75 73 66 70 77 78 75 73 67
24 26 26 22 22 25 49 63 65 70 76 85 91 91 88 92 90 92 79 93 93 85 76 83 76 74 75 75 75 74 76 79 75 72 71 73 75 80 79 76 78 75 71 69 71 80 79 68 60
22 24 27 27 28 39 50 68 70 72 74 75 79 85 90 93 91 97 92 83 88 85 83 75 73 72 72 68 72 80 81 82 79 75 71 67 72 78 79 74 82 75 78 73 68 74 82 74 78
28 19 20 25 30 41 43 74 71 67 77 74 78 89 92 92 90 95 92 85 78 79 74 62 72 73 73 70 74 78 81 80 76 77 73 69 68 74 72 79 80 78 79 86 84 77 77 84 80
23 18 18 20 29 33 40 72 67 69 82 79 78 80 83 87 84 87 86 80 73 73 73 75 74 72 80 77 74 77 81 77 77 75 77 84 79 79 74 74 78 81 80 82 84 87 81 84 91
17 16 20 28 31 45 43 55 61 68 63 72 70 69 70 77 75 74 75 72 70 68 68 70 71 74 73 75 75 78 77 79 76 77 78 74 73 75 77 76 77 85 87 83 78 86 84 82 84
16 22 30 27 34 38 54 53 49 51 55 60 64 63 63 66 73 75 75 76 70 61 65 63 75 74 74 77 76 78 79 77 73 71 77 76 72 75 75 79 82 83 86 81 87 85 85 84 80
17 20 29 27 37 46 51 54 41 48 47 51 50 51 56 62 64 66 67 70 69 61 66 73 76 72 73 75 77 77 76 72 66 74 76 73 71 73 77 78 82 82 89 89 87 88 87 84 82
16 20 19 40 46 56 57 57 48 52 52 55 54 52 53 56 58 58 61 62 66 66 61 66 71 72 73 76 78 77 75 77 70 73 77 71 70 70 73 74 74 80 86 91 89 92 90 85 83
15 20 29 39 42 46 62 70 66 53 50 59 57 50 49 52 54 54 58 62 61 56 59 65 66 65 69 74 77 77 78 74 81 69 72 74 71 70 72 74 74 80 80 84 89 89 90 90 86
14 24 35 38 45 50 55 60 57 59 60 62 62 55 55 54 53 54 56 59 54 53 55 61 66 68 72 74 76 74 74 78 82 84 83 83 80 81 76 78 79 80 80 81 85 87 88 88 85
14 17 30 34 37 58 56 56 38 50 56 53 54 49 46 49 51 53 53 56 62 60 57 60 65 68 64 56 67 81 81 84 81 82 77 81 82 83 83 83 84 86 85 85 84 84 84 83 83
Wind_Speed
5 4 3 3 5 5 3 2 5 6 5 1 9 3 5 5 1 3 16 22 33 32 28 25 26 25 23 25 25 23 23 23 23 25 25 23 22 21 19 17 16 15 14 15 13 13 13 13 14
7 2 2 2 5 3 2 2 3 5 4 3 5 5 5 3 5 12 13 31 35 32 29 28 27 26 23 23 23 21 21 21 22 23 21 21 20 19 18 17 15 14 14 14 14 13 12 12 14
5 2 3 4 3 3 2 6 5 7 3 5 0 3 4 3 12 17 17 33 35 31 30 28 27 26 23 22 21 21 19 18 19 18 19 19 18 16 16 15 14 13 13 14 13 11 10 13 13
2 4 4 5 4 3 2 1 5 5 4 2 2 6 4 8 18 13 34 34 34 31 30 28 25 24 23 21 19 19 17 16 16 16 16 16 15 15 13 13 12 11 11 12 11 11 10 11 10
4 3 4 5 2 1 2 9 7 5 1 2 2 3 7 8 14 36 34 34 33 31 31 29 26 23 21 20 18 17 16 16 15 15 14 14 14 13 12 10 9 9 8 9 8 10 9 9 8
4 2 4 4 3 1 3 9 6 1 5 8 9 6 3 22 33 33 37 34 33 35 31 29 25 24 22 21 19 16 14 14 14 14 13 13 12 11 10 9 8 7 6 6 6 7 8 8 7
4 3 3 3 5 5 3 8 3 4 2 3 8 4 3 14 23 32 32 35 35 33 30 28 25 23 21 18 16 17 15 14 14 14 13 12 12 10 8 7 6 5 4 3 3 4 6 8 8
3 3 2 3 10 5 7 6 8 4 3 3 8 5 6 14 22 24 24 29 32 32 31 29 27 24 22 20 18 17 17 15 15 14 13 11 9 8 7 7 6 4 3 3 3 4 5 8 10
2 3 3 5 7 5 10 8 7 3 2 2 4 4 14 28 27 25 22 19 22 27 31 30 29 27 23 21 19 17 16 14 13 11 12 11 8 8 7 7 7 6 5 6 6 7 7 7 11
3 2 4 5 7 10 16 11 11 6 5 2 2 15 29 29 27 25 24 22 22 23 27 32 30 27 26 22 20 18 16 16 15 14 14 12 10 6 8 9 9 8 8 8 8 9 9 9 11
5 4 6 6 7 10 13 8 4 6 3 7 16 20 23 27 24 24 24 26 25 27 28 31 31 28 28 25 22 20 19 19 18 17 15 14 12 9 7 11 13 9 7 8 7 6 8 9 9
3 11 7 6 8 6 9 7 6 7 4 9 18 23 18 20 18 24 24 25 27 29 29 32 31 30 28 26 24 22 21 20 20 19 16 14 13 13 10 12 14 11 8 7 6 6 5 8 9
7 7 6 2 12 7 9 5 5 1 9 15 18 20 20 17 20 18 17 19 17 21 26 30 31 31 29 25 24 22 22 21 20 19 16 15 15 13 12 10 15 11 8 6 7 7 7 9 12
5 6 5 6 9 10 9 5 1 2 12 17 18 17 16 17 21 19 23 23 24 24 22 26 30 29 28 26 25 24 22 21 19 19 17 14 13 12 10 9 13 11 7 5 7 7 9 7 8
7 3 3 2 5 5 10 3 1 5 13 14 13 12 12 14 19 23 25 31 30 26 24 24 30 29 28 28 25 25 21 21 19 18 17 15 15 12 9 9 9 9 9 6 4 8 9 5 6
5 5 3 3 7 7 5 5 5 11 15 13 10 9 10 10 14 12 21 24 28 31 28 25 24 28 28 29 27 24 22 21 18 18 19 18 14 13 13 11 9 8 8 6 3 7 5 4 2
6 1 3 8 5 8 4 3 5 9 11 10 9 9 9 6 5 6 15 23 26 31 32 27 26 21 24 25 26 23 21 21 19 17 19 17 11 12 13 12 10 9 8 5 4 4 4 5 2
3 4 5 7 2 4 4 2 8 10 10 9 7 6 6 6 2 7 12 16 19 23 30 26 28 25 22 24 22 21 22 21 19 18 19 16 13 13 14 10 10 10 10 7 3 2 4 3 2
4 1 9 7 3 3 4 7 9 7 6 7 4 4 5 3 5 12 13 11 17 16 25 26 23 25 21 22 23 23 23 20 19 20 17 15 14 14 15 12 11 11 12 9 6 3 3 4 4
3 4 10 5 5 4 5 12 7 6 2 4 8 9 6 4 6 10 15 14 19 20 21 22 22 26 23 25 26 24 19 19 19 17 19 16 13 14 14 11 11 11 11 11 9 5 4 2 1
8 4 5 6 3 4 8 5 5 3 4 6 4 4 6 9 11 8 11 18 18 22 23 17 23 25 25 26 24 19 15 16 14 18 15 13 10 14 14 10 12 11 11 11 11 9 6 4 3
7 6 9 10 4 4 4 3 4 4 4 6 7 7 8 7 8 6 8 14 22 20 21 23 21 28 27 27 25 22 20 15 16 16 14 10 12 12 11 13 13 13 13 11 12 10 9 7 6
11 6 7 4 5 3 3 5 5 3 7 9 9 8 8 8 11 11 13 17 22 18 18 21 22 22 22 23 24 23 19 17 12 11 11 11 9 12 12 11 12 14 14 13 13 11 11 8 9
10 3 6 4 4 2 3 4 5 6 10 5 5 8 9 8 8 9 15 18 20 20 20 22 21 21 21 21 22 21 20 17 14 14 12 12 12 13 13 14 14 14 15 16 17 14 14 13 11
4 5 3 4 4 4 2 2 8 6 4 8 14 11 8 8 7 7 8 13 17 20 23 23 22 23 21 21 20 19 18 16 15 14 14 13 12 12 12 13 15 16 16 16 16 15 15 14 14
6 8 6 4 3 3 3 4 3 4 8 6 5 8 8 10 8 9 11 16 19 19 22 20 17 19 20 20 19 19 18 15 15 14 14 13 12 10 9 10 12 13 14 14 15 16 16 15 15
2 3 3 7 3 3 3 6 9 8 9 9 11 10 12 13 12 13 11 17 19 20 22 20 19 19 20 21 18 19 19 19 15 13 12 11 11 9 7 8 8 10 11 13 13 14 16 16 15
5 6 3 3 4 3 4 5 6 6 8 8 8 15 15 13 13 10 10 16 21 23 22 20 20 19 20 19 18 18 16 11 9 8 7 6 4 3 4 9 8 7 8 11 12 14 13 14 15
3 1 5 5 5 5 2 6 8 11 10 10 8 11 13 13 13 11 11 18 25 23 21 19 18 18 18 17 17 12 8 8 4 2 1 1 0 1 2 4 7 8 9 9 11 13 13 13 14
4 8 6 5 6 1 4 7 4 9 11 12 12 11 11 13 13 12 13 17 21 26 24 24 22 18 12 7 12 8 7 5 4 5 5 4 3 3 2 1 4 7 9 9 10 12 13 14 15
Wind_Direction
339 321 340 26 53 68 158 38 142 305 350 336 151 207 105 34 18 198 145 150 154 152 157 151 144 138 134 133 130 127 126 127 126 125 127 125 125 125 121 123 125 124 121 117 116 111 114 115 121
16 11 31 87 84 78 218 257 0 318 336 39 46 75 48 85 70 120 123 154 155 155 159 153 149 141 137 137 137 132 130 129 128 125 123 124 122 124 123 123 124 123 121 122 117 118 124 126 126
10 6 69 72 75 88 39 39 31 335 249 344 144 67 66 96 114 139 150 148 153 158 161 155 152 145 143 141 139 137 132 127 127 124 124 123 124 123 123 125 124 123 123 123 124 136 142 129 128
66 12 42 71 62 24 15 43 169 242 281 262 69 80 83 150 140 152 148 153 156 160 162 156 157 153 151 147 145 139 134 131 129 125 125 124 124 125 125 124 125 126 127 130 145 152 150 141 144
59 56 57 77 59 348 123 143 209 214 297 0 37 55 93 136 150 145 152 157 155 161 163 163 163 159 157 152 150 147 145 141 136 134 132 129 128 129 130 127 129 133 133 145 154 154 156 159 154
22 82 52 65 77 220 189 172 215 138 41 101 102 105 56 143 142 151 157 158 162 164 165 166 169 165 165 161 159 154 153 152 145 144 142 141 141 139 141 137 141 138 148 162 163 175 177 178 169
130 67 88 62 32 80 149 151 214 156 170 147 137 80 92 157 155 154 155 161 166 165 167 168 171 172 174 170 168 165 163 166 161 158 155 155 152 152 151 151 156 155 174 191 180 213 210 198 185
96 92 105 184 174 187 208 205 212 185 221 4 137 151 167 171 151 146 152 159 165 169 171 171 173 177 180 177 177 175 176 175 173 172 168 168 166 166 162 170 176 175 191 223 247 239 237 209 206
126 26 145 191 153 200 197 170 163 157 114 294 186 169 142 146 146 140 141 151 164 173 177 177 176 179 178 176 178 180 180 182 183 176 170 183 190 186 187 205 205 209 254 280 269 256 250 230 212
123 195 220 163 166 183 173 170 166 159 146 268 88 114 133 147 149 146 154 163 171 176 181 182 179 180 177 178 178 186 188 189 193 191 195 209 196 206 215 225 232 236 277 272 275 262 254 238 222
194 211 228 176 159 179 175 163 128 142 198 211 157 140 147 153 158 159 168 178 178 177 182 186 184 182 181 182 184 198 196 197 201 209 208 210 220 238 245 232 230 245 268 284 295 267 257 246 228
184 239 250 133 147 139 159 123 163 198 222 158 151 150 150 160 169 172 174 173 181 184 187 189 189 186 187 188 192 199 202 204 209 218 223 232 244 252 253 237 227 245 271 285 306 298 280 257 243
178 215 259 128 166 166 134 139 172 106 119 134 147 149 159 167 175 175 174 166 186 189 188 194 194 193 192 195 199 203 208 211 216 224 232 243 251 259 253 237 229 249 265 288 304 311 286 266 248
302 241 198 226 154 177 126 144 80 78 138 137 152 158 167 174 172 166 169 174 182 188 191 197 199 199 197 201 206 210 213 220 224 227 236 243 247 257 251 231 225 250 261 297 313 305 308 275 275
289 334 59 268 162 122 103 37 263 155 136 145 144 156 154 174 170 177 174 178 187 188 189 202 205 206 206 208 212 213 218 227 231 237 239 243 246 248 237 227 233 237 260 293 318 316 309 294 275
353 48 23 264 137 168 91 229 241 154 154 156 146 155 175 184 186 184 181 184 185 185 192 200 209 213 214 217 219 220 227 234 236 239 243 247 235 237 237 235 237 245 260 269 307 331 331 312 307
4 54 278 312 180 151 172 219 200 177 168 158 158 168 185 195 175 164 181 184 186 188 184 195 211 214 223 225 228 233 232 238 239 242 246 259 239 241 241 243 240 240 228 265 285 310 339 355 0
5 346 346 280 223 50 89 150 169 181 168 163 163 163 184 205 141 171 180 188 191 194 181 193 209 216 224 230 238 230 235 240 241 244 256 243 241 247 246 233 230 230 219 242 258 332 334 314 313
277 290 311 265 63 116 149 168 179 181 119 133 156 206 212 138 142 167 181 188 202 193 196 203 207 212 222 225 219 227 234 241 246 244 259 250 232 239 241 231 226 224 224 230 250 289 306 287 281
300 309 289 299 237 136 112 49 72 127 130 163 190 204 208 197 191 180 184 186 190 193 200 207 209 220 225 221 222 229 238 244 250 253 254 252 233 237 234 238 222 218 228 231 240 257 266 273 1
287 234 236 210 74 48 108 21 16 15 132 176 196 194 202 204 198 194 177 183 183 206 204 209 213 210 220 226 231 229 239 245 249 251 248 245 240 233 223 242 226 222 228 230 230 240 259 253 257
281 234 247 245 111 201 69 224 295 281 224 203 191 185 186 191 193 196 191 187 202 216 214 214 215 222 225 231 226 227 231 235 244 256 260 245 220 220 236 237 230 228 235 237 236 238 248 255 258
246 309 241 237 115 71 31 95 265 175 226 223 211 198 187 202 190 185 198 205 209 220 217 214 213 214 220 213 220 228 235 243 247 267 269 253 241 238 239 237 240 236 234 242 245 243 242 248 256
259 214 33 57 105 83 202 136 254 195 215 204 212 222 187 191 219 177 195 207 222 224 226 217 216 221 216 219 225 232 238 244 253 259 268 260 253 249 248 246 240 242 244 246 244 247 257 253 265
126 58 347 0 15 213 350 47 236 203 189 196 197 216 190 169 197 187 180 194 215 216 216 215 218 218 217 221 228 232 240 245 253 261 263 264 261 254 252 245 239 241 244 243 242 244 249 242 253
200 163 150 201 196 245 44 240 237 195 183 201 192 207 192 165 184 206 195 199 207 207 207 208 214 220 218 222 227 233 238 243 246 262 264 273 270 271 269 258 247 243 242 238 237 241 244 249 251
243 198 193 102 39 80 251 291 302 175 194 199 187 217 186 180 186 203 195 197 200 207 209 210 219 221 223 225 229 237 239 246 257 265 273 280 261 264 247 246 248 242 233 231 235 241 244 243 247
168 163 88 4 127 231 280 274 238 244 190 180 214 178 181 180 188 195 197 189 203 211 214 214 217 219 221 226 234 243 254 261 268 271 280 275 286 292 283 223 228 233 228 225 229 239 244 240 239
351 343 44 115 125 167 212 262 212 210 190 172 168 166 168 176 186 191 190 191 197 202 209 213 217 216 222 226 228 240 256 265 274 303 1 169 172 13 329 199 222 236 237 233 238 243 244 244 248
207 208 155 134 229 155 155 271 218 204 174 166 173 165 168 175 184 188 176 179 183 194 206 216 213 206 212 218 218 211 182 165 153 114 99 85 85 88 93 188 235 244 247 247 250 253 251 251 254